Location: Albany
(35.0000°S, 118.0000°E)
Time: 06:42:17
(UTC-04:00)

CZ-4B R/B - Visible Passes

Search period start: 31 October 2014 00:00
Search period end: 09 November 2014 23:00
Orbit: 494 x 674 km, 97.6° (Epoch: 30 October)

Date Brightness Start Highest point End Pass type
(mag) Time Alt. Az. Time Alt. Az. Time Alt. Az.
31 Oct 2.9 15:52:35 11° N 15:56:02 49° W 15:59:52 10° SSW visible
01 Nov 6.0 14:25:52 10° E 14:27:12 12° ESE 14:28:32 10° SE visible
01 Nov 3.2 15:58:35 10° N 16:02:07 40° W 16:05:51 10° SSW visible
02 Nov 5.8 13:31:11 10° E 13:33:11 14° ESE 13:35:13 10° SE visible
02 Nov 3.4 15:04:46 10° NNW 15:08:12 33° W 15:11:49 10° SSW visible
03 Nov 5.7 13:36:43 10° ENE 13:39:10 16° ESE 13:41:41 10° SSE visible
03 Nov 3.7 15:10:59 10° NNW 15:14:17 28° W 15:17:45 10° SW visible
04 Nov 5.5 13:42:21 10° ENE 13:45:09 19° ESE 13:48:03 10° SSE visible
04 Nov 3.9 15:17:15 10° NNW 15:20:22 24° W 15:23:38 10° SW visible
05 Nov 5.2 13:48:03 10° ENE 13:51:07 23° ESE 13:54:21 10° SSE visible
05 Nov 4.2 15:23:33 10° NW 15:26:27 20° W 15:29:28 10° SW visible
06 Nov 4.9 13:53:48 10° NE 13:57:06 27° ESE 14:00:35 10° SSE visible
06 Nov 4.4 15:29:55 10° NW 15:32:32 17° W 15:35:15 10° SW visible
07 Nov 4.6 13:59:36 10° NE 14:03:05 32° ESE 14:06:47 10° S visible
08 Nov 4.3 14:05:25 10° NE 14:09:04 38° ESE 14:12:57 10° S visible
09 Nov 3.9 14:11:17 10° NNE 14:15:03 46° ESE 14:19:05 10° S visible
